Terminal Aerodrome Forecast
Issued by NWS Blacksburg, VA

Current Version | Previous Version | Text Only | Print | Product List | Glossary Off
Versions: 1 2 3 4 5 6 7 8 9 10 11 12 13 14 15 16 17 18 19 20 21 22 23 24 25 26 27 28 29 30 31 32 33 34 35 36 37 38 39 40 41 42 43 44 45 46 47 48 49 50

000
FTUS41 KRNK 192104 AAB
TAFBLF
TAF AMD
KBLF 192104Z 1921/2018 12010G20KT 3SM -SHRA OVC012
     FM200100 19010KT 6SM BR OVC008
     FM200800 23008KT P6SM OVC005
     FM200900 18009G15KT P6SM BKN015
     FM201400 20011G18KT P6SM SHRA BKN025 OVC050=

USA.gov is the U.S. government's official web portal to all federal, state and local government web resources and services.